Weather observations for the past three days for
Marquette Sawyer Regional Airport
Imperial (Metric)
Date Time (edt) Wind (mph) Vis. (mi.) Weather Sky Cond. Temperature (ºF) Relative Humidity Wind Chill (°F) Heat Index (°F) Pressure Precipitation (in)
Air Dwpt 6 hour altimeter (in) sea level (mb) 1 hr 3 hr 6 hr
Max. Min.
03 01:38 W 2 10.00 Fair CLR 55.4 55.4 100% 29.96 0.0
03 01:18 NW 2 10.00 Fair CLR 57.2 57.2 100% 29.96 0.0
03 00:58 Calm 10.00 Fair CLR 57.2 55.4 94% 29.96 0.0
03 00:38 NW 2 10.00 Fair CLR 57.2 57.2 100% 29.96 0.0
03 00:18 NW 3 10.00 Fair CLR 57.2 57.2 100% 29.96 0.0
02 23:58 NW 2 10.00 Fair CLR 57.2 57.2 100% 29.96 0.0
02 23:38 NW 3 10.00 Fair CLR 57.2 57.2 100% 29.96 0.0
02 23:18 NW 2 10.00 Fair CLR 59 57.2 94% 29.96 0.0
02 22:58 NW 2 10.00 Fair CLR 59 59 100% 29.95 0.0
02 22:38 N 3 10.00 Fair CLR 60.8 59 94% 29.95 0.0
02 22:18 NE 2 10.00 Fair CLR 60.8 59 94% 29.95 0.0
02 21:47 N 6 10.00 Fair CLR 60.8 60.8 100% 29.94 0.0
02 20:47 N 8 10.00 Fair CLR 64.4 59 83% 29.93 0.0
02 19:50 NE 8 10.00 Fair CLR 69.8 59 69% 29.93 0.0
02 18:47 NE 9 10.00 Fair CLR 73.4 59 61% 29.92 0.0
02 17:47 NE 12 10.00 A Few Clouds FEW060 75.2 59 57% 78 29.91 0.0
02 16:47 E 10 10.00 Mostly Cloudy BKN060 77 59 54% 79 29.91 0.0
02 15:47 NE 12 10.00 Fair CLR 78.8 60.8 54% 80 29.92 0.0
02 14:47 NE 10 10.00 Fair CLR 78.8 59 51% 80 29.92 0.0
02 13:45 NE 12 G 23 10.00 Partly Cloudy SCT050 SCT060 78.8 59 51% 80 29.91 0.0
02 12:45 NW 7 10.00 A Few Clouds FEW042 77 59 54% 79 29.91 0.0
02 11:45 W 7 10.00 Fair CLR 73.4 59 61% 29.92 0.0
02 10:45 SW 7 10.00 Fair CLR 64.4 60.8 88% 29.93 0.0
02 09:45 W 3 10.00 Mostly Cloudy BKN120 62.6 59 88% 29.93 0.0
02 08:45 N 5 10.00 Light Rain BKN110 62.6 59 88% 29.91 0.0
02 07:45 SW 2 10.00 Partly Cloudy SCT120 62.6 57.2 83% 29.96 0.0
02 06:45 NW 2 10.00 Mostly Cloudy BKN120 62.6 55.4 77% 29.93 0.0
02 05:58 W 2 10.00 Mostly Cloudy BKN120 62.6 55.4 77% 29.92 0.0
02 05:38 W 2 10.00 Mostly Cloudy BKN120 62.6 55.4 77% 29.92 0.0
02 05:18 W 3 10.00 Fair CLR 60.8 55.4 83% 29.92 0.0
02 04:58 W 3 10.00 Fair CLR 62.6 55.4 77% 29.92 0.0
02 04:38 W 3 10.00 Fair CLR 62.6 55.4 77% 29.91 0.0
02 04:18 SW 3 10.00 Fair CLR 62.6 55.4 77% 29.91 0.0
02 03:58 W 5 10.00 Fair CLR 62.6 55.4 77% 29.9 0.0
02 03:38 NW 3 10.00 Fair CLR 60.8 53.6 77% 29.9 0.0
02 03:18 NW 2 10.00 Fair CLR 59 53.6 82% 29.91 0.0
02 02:58 NW 2 10.00 Fair CLR 57.2 53.6 88% 29.91 0.0
02 02:38 W 2 10.00 Fair CLR 60.8 55.4 83% 29.91 0.0
02 02:18 Vrbl 2 10.00 Fair CLR 59 55.4 88% 29.91 0.0
02 01:58 W 1 7.00 Fair CLR 59 55.4 88% 29.91 0.0
02 01:38 W 1 10.00 Fair CLR 59 55.4 88% 29.92 0.0
02 01:18 W 1 10.00 Fair CLR 59 55.4 88% 29.91 0.0
02 00:58 SW 1 10.00 Fair CLR 62.6 55.4 77% 29.91 0.0
02 00:38 SW 1 10.00 Fair CLR 62.6 57.2 83% 29.91 0.0
02 00:18 Vrbl 1 10.00 Fair CLR 62.6 55.4 77% 29.92 0.0
01 23:58 Vrbl 1 10.00 Fair CLR 64.4 57.2 78% 29.91 0.0
01 23:38 NW 2 10.00 Fair CLR 64.4 57.2 78% 29.91 0.0
01 23:18 W 1 10.00 Fair CLR 64.4 57.2 78% 29.91 0.0
01 22:58 W 3 10.00 Fair CLR 64.4 57.2 78% 29.91 0.0
01 22:38 W 5 10.00 Fair CLR 66.2 57.2 73% 29.91 0.0
01 22:18 NW 2 10.00 Fair CLR 66.2 55.4 68% 29.9 0.0
01 21:47 N 5 10.00 Fair CLR 68 57.2 69% 29.89 0.0
01 20:47 NE 6 10.00 Fair CLR 73.4 55.4 53% 29.87 0.0
01 19:47 NE 8 10.00 Fair CLR 77 57.2 51% 79 29.87 0.0
01 18:47 NE 14 10.00 Fair CLR 80.6 59 48% 81 29.87 0.0
01 17:47 W 12 10.00 Fair CLR 89.6 51.8 27% 87 29.85 0.0
01 16:47 SW 14 G 24 10.00 Fair CLR 89.6 53.6 29% 87 29.86 0.0
01 15:47 SW 15 10.00 Fair CLR 89.6 55.4 31% 88 29.87 0.0
01 14:47 W 13 10.00 Fair CLR 87.8 55.4 33% 86 29.89 0.0
01 13:45 SW 14 G 20 10.00 Fair CLR 86 59 40% 85 29.9 0.0
01 12:45 S 12 10.00 Fair CLR 82.4 66.2 58% 85 29.92 0.0
01 11:45 S 12 10.00 Fair CLR 78.8 68 70% 81 29.94 0.0
01 10:45 SW 9 10.00 Fair CLR 75.2 66.2 74% 77 29.94 0.0
01 09:45 SW 6 10.00 Fair CLR 69.8 69.8 100% 29.94 0.0
01 08:45 SW 1 8.00 A Few Clouds FEW001 64.4 64.4 100% 29.94 0.0
01 07:45 NW 2 0.19 Fog VV000 59 59 100% 29.94 0.0
01 06:45 SW 2 0.19 Fog VV002 62.6 62.6 100% 29.92 0.0
01 05:58 SW 3 0.15 Fog VV000 64.4 64.4 100% 29.92 0.0
01 05:38 SW 3 0.15 Fog VV000 62.6 62.6 100% 29.92 0.0
01 05:18 SW 2 0.15 Fog VV000 62.6 62.6 100% 29.92 0.0
01 04:58 W 2 0.15 Fog VV000 62.6 62.6 100% 29.92 0.0
01 04:38 NW 2 0.25 Fog VV002 64.4 64.4 100% 29.92 0.0
01 04:18 W 1 0.25 Fog VV002 66.2 66.2 100% 29.91 0.0
01 03:58 Calm 0.15 Fog BKN001 BKN009 66.2 66.2 100% 29.92 0.0
01 03:38 N 2 0.25 Fog BKN001 BKN009 66.2 66.2 100% 29.92 0.0
01 03:18 NW 2 0.25 Fog VV002 66.2 66.2 100% 29.91 0.0
01 02:58 SW 2 0.25 Fog VV002 68 68 100% 29.91 0.0
01 02:38 Calm 0.15 Fog VV000 68 68 100% 29.91 0.0
01 02:18 W 2 0.15 Fog VV000 68 68 100% 29.92 0.0
01 01:58 NW 2 0.25 Fog VV002 68 68 100% 29.92 0.0
01 01:38 N 1 0.25 Fog VV002 68 68 100% 29.92 0.0
01 01:18 Calm 0.15 Fog VV000 68 68 100% 29.92 0.0
01 00:58 S 3 0.15 Fog VV000 68 68 100% 29.91 0.0
01 00:38 S 3 0.25 Fog BKN002 69.8 69.8 100% 29.9 0.0
01 00:18 S 5 1.00 Fog/Mist OVC002 69.8 69.8 100% 29.91 0.0
31 23:58 S 5 2.50 Fog/Mist SCT002 69.8 69.8 100% 29.9 0.0
31 23:38 S 7 5.00 Fog/Mist CLR 69.8 69.8 100% 29.9 0.0
31 23:18 S 7 6.00 Fog/Mist FEW020 69.8 69.8 100% 29.9 0.0
31 22:58 S 7 9.00 Partly Cloudy SCT020 SCT025 SCT032 71.6 69.8 94% 29.9 0.0
31 22:38 S 6 10.00 Mostly Cloudy BKN022 71.6 71.6 100% 29.9 0.0
31 22:18 S 6 10.00 Overcast OVC022 73.4 71.6 94% 29.9 0.0
31 21:46 S 6 8.00 Overcast BKN024 OVC028 75.2 71.6 89% 75 29.9 0.0
31 20:46 SW 3 10.00 Overcast BKN028 BKN034 OVC040 77 71.6 83% 78 29.87 0.0
31 19:46 S 3 10.00 Mostly Cloudy SCT036 BKN048 78.8 71.6 79% 82 29.87 0.0
31 18:46 SW 6 10.00 Overcast OVC027 78.8 71.6 79% 82 29.87 0.0
31 17:46 W 2 10.00 Overcast OVC025 78.8 69.8 74% 81 29.85 0.0
31 16:46 SE 2 10.00 Overcast OVC023 78.8 71.6 79% 82 29.84 0.0
31 15:46 SW 5 10.00 Overcast OVC021 78.8 69.8 74% 81 29.85 0.0
31 14:46 S 9 10.00 Overcast BKN018 OVC025 77 69.8 79% 79 29.86 0.0
31 13:46 SW 10 10.00 Overcast FEW012 OVC018 75.2 69.8 83% 75 29.88 0.0
31 12:46 S 13 G 20 9.00 Overcast OVC009 75.2 69.8 83% 75 29.87 0.0
31 11:47 S 12 8.00 Overcast OVC005 71.6 69.8 94% 29.89 0.0
31 10:47 S 9 10.00 Overcast OVC003 69.8 68 94% 29.89 0.0
31 09:47 S 9 6.00 Fog/Mist OVC001 68 68 100% 29.89 0.0
31 08:47 S 8 3.00 Fog/Mist OVC001 66.2 66.2 100% 29.9 0.0
31 07:47 S 9 3.00 Fog/Mist OVC001 64.4 64.4 100% 29.9 0.0
31 06:47 S 10 0.50 Thunderstorm in Vicinity Fog VV005 64.4 64.4 100% 29.91 0.0
31 05:58 S 6 0.50 Fog VV005 64.4 64.4 100% 29.91 0.0
31 05:38 SE 7 0.75 Fog/Mist BKN001 64.4 64.4 100% 29.91 0.0
31 05:18 S 8 3.00 Fog/Mist OVC001 64.4 64.4 100% 29.92 0.0
31 04:58 S 8 6.00 Light Rain Fog/Mist OVC003 64.4 64.4 100% 29.94 0.0
31 04:38 S 10 7.00 Light Rain Fog/Mist OVC003 64.4 64.4 100% 29.94 0.0
31 04:18 S 9 7.00 Light Rain Fog/Mist OVC003 64.4 64.4 100% 29.95 0.0
31 03:58 S 8 2.50 Thunderstorm Light Rain Fog/Mist OVC003 64.4 64.4 100% 29.95 0.0
31 03:38 E 6 1.50 Heavy Rain Fog/Mist OVC001 64.4 64.4 100% 29.96 0.0
31 03:18 SE 6 1.75 Fog/Mist OVC001 64.4 64.4 100% 29.96 0.0
31 02:58 SE 7 2.50 Fog/Mist OVC001 64.4 64.4 100% 29.98 0.0
31 02:38 S 7 4.00 Fog/Mist OVC001 64.4 64.4 100% 29.98 0.0
31 02:18 SE 5 4.00 Thunderstorm in Vicinity Fog/Mist OVC001 64.4 64.4 100% 29.97 0.0
31 01:58 SE 3 4.00 Thunderstorm in Vicinity Fog/Mist OVC001 64.4 64.4 100% 29.97 0.0
Date Time (edt) Wind (mph) Vis. (mi.) Weather Sky Cond. Air Dwpt Max. Min. Relative Humidity Wind Chill (°F) Heat Index (°F) altimeter (in) sea level (mb) 1 hr 3 hr 6 hr
6 hour
Temperature (ºF) Pressure Precipitation (in)